IRIDIUM 33 DEB, 46979

Orbit data source: Space-Track

IRIDIUM 33 DEB, 46979 is space debris in LEO originally from a launch on Sun, 14 Sep 1997 UTC launched from the Tyuratam Missile And Space Complex (TTMTR). The debris from Iridium 33, an American commercial communications satellite, has been tracked extensively since its accidental collision with the defunct Russian satellite Cosmos 2251 in 2009. This event, occurring at high speed in low Earth orbit (LEO), generated thousands of pieces of space debris, significantly increasing the risk of further collisions. The Iridium 33 debris cloud has impacted space traffic management and orbital debris mitigation strategies, making it a subject of ongoing study in space situational awareness.

Loading next visibility...
Identifier
46979, 1997-051ACM
Orbit
LEO
Country
Flag of USUS
Related business
Manufacturer
Unknown
Mission
Spacecraft
Bus & Motor
Unknown
Mass
Unknown
Launch date (UTC)
1997-09-14 (28 years ago)
Launch vehicle
Unknown
Launch site
Tyuratam Missile And Space Complex (TTMTR)
Object type
Payload
Rocket body
Debris
Shape & HBR
Unknown shape, 0.1 m
Radar Cross Section
Small (<0.1 m²)

Expand to show TLE details & history
Last TLE update: 4 days ago

TLE from 4 days ago
0 IRIDIUM 33 DEB
1 46979U 97051ACM 25351.89069302  .00029954  00000-0  30815-2 0  9998
2 46979  86.3335  46.1582 0027935 204.5568 155.4330 14.89884450355057
Epoch: 2025-12-17T21:22Z
TLE epoch observation values (Epoch: 2025-12-17T21:22:35.876Z)
Latitude
-0.00009°
Longitude
-1.24535°
Altitude
619.163 km
Speed
7.54 km/s
True Right ascension
03h 04m 37s
True Declination
0° 00' 00"
Sunlit
Object was in full shadow at epoch
Visualization orbit readout
Latitude
Unknown
Longitude
Unknown
Altitude
Unknown
Speed
Unknown
Apparent Right ascension
Unknown
Apparent Declination
Unknown
Sunlit
N/A
Visualization observer readout
Local Sidereal Time
13:04:36
Azimuth
Unknown
Elevation
Unknown
Doppler factor
Unknown
Orbital elements
Apogee altitude
614.664 km
Perigee altitude
575.704 km
Semi-major axis
6,973.321 km
Eccentricity
0.00279
Inclination
86.3335°
RAAN
46.1582°
Arg. of periapsis
204.5568°
True anomaly
155.56567°
Mean anomaly
155.433°
Eccentric anomaly
155.49938°
Mean motion
3.72721 °/min
Orbital period
96.59 mins
BSTAR
0.0030815
Loading maneuver chart data...
Computing Atmospheric mass density...
Loading historical data...
Loading historical data...
Loading historical data...
Loading historical data...
Loading historical data...
Loading historical data...
Loading historical data...

Documentation

Showing up to 5 results
|